[[{"header":{"parameterUnit":"m.s-1","parameterCategory":1,"la1":30.2991,"la2":30.254,"lo1":-89.0895,"lo2":-89.0444,"dy":0.0017,"dx":0.0017,"nx":28,"ny":28,"refTime":"2025-06-09T09:00:00:Z","depth":0,"parameterNumber":2,"parameterNumberName":"U-component_of_WINDS"},"data":[0,0,0,0,0,0,0,0,0,0,0,0,0,0,0,0,0,0,0,0,0,0,0,0,0,0,0,0,0,0,0,0,0,0,0,0,0,0,0,0,0,0,0,0,0,0,0,0,0,0,0,0,0,0,0,0,0,0,1.1202,1.1203,0,1.1315,1.1317,1.1318,1.137,1.137,1.137,1.137,1.1484,1.1487,1.149,0,0,0,0,0,0,0,0,0,0,0,0,0,1.1027,1.103,1.1202,1.1203,1.1204,1.1315,1.1317,1.1318,1.137,1.137,1.137,1.137,1.1483,1.1487,1.149,0,0,0,0,0,0,0,0,0,0,0,0,0,1.1118,1.1031,1.1201,1.1244,1.1249,1.1315,1.1317,1.1319,1.137,1.137,1.137,1.137,1.1482,1.1486,1.1491,1.1522,0,0,1.1505,1.1507,0,0,0,0,0,0,0,0,1.1112,1.1124,1.1236,1.1241,1.1247,1.1329,1.1297,1.1387,1.137,1.1324,1.137,1.137,1.1432,1.1441,1.1462,1.1528,1.1533,1.1506,1.1508,1.151,1.1512,0,0,0,0,0,0,0,1.1106,1.1119,1.1247,1.1238,1.1244,1.1256,1.1269,1.1314,1.1377,1.1328,1.1332,1.1345,1.1435,1.1458,1.1466,1.1534,1.1505,1.151,1.1512,1.1514,1.1632,1.1632,0,0,0,0,0,0,1.1093,1.1114,1.1243,1.125,1.1178,1.126,1.1274,1.1302,1.1377,1.1388,1.1345,1.1347,1.145,1.146,1.147,1.1512,1.151,1.1515,1.1517,1.1631,1.1632,1.1632,0,0,0,0,0,0,1.1089,1.1104,1.1238,1.1183,1.1201,1.1263,1.1294,1.1305,1.1328,1.139,1.1401,1.1357,1.145,1.1463,1.1509,1.1517,1.1517,1.1521,1.1631,1.1631,1.1632,1.1597,0,0,0,0,0,0,1.1084,1.1103,1.1116,1.1183,1.1204,1.1277,1.1295,1.1307,1.1336,1.134,1.1404,1.1415,1.1451,1.1502,1.1514,1.1523,1.1525,1.1631,1.1631,1.1632,1.1597,1.1596,1.1595,0,0,0,0,0,1.1078,1.1101,1.1116,1.1131,1.1222,1.1277,1.1289,1.1331,1.1336,1.135,1.139,1.1413,1.1514,1.1506,1.152,1.1531,1.163,1.1631,1.1632,1.1598,1.1596,1.1595,0,0,0,0,0,0,1.1032,1.111,1.1128,1.1174,1.1219,1.1286,1.1304,1.1327,1.1371,1.1372,1.1422,1.1436,1.1478,1.1509,1.1499,1.1566,1.1574,1.1578,1.1544,1.1543,1.1541,1.1533,1.1529,0,0,0,0,0,1.1027,1.1066,1.1132,1.1166,1.1188,1.1242,1.1267,1.1296,1.1344,1.1363,1.1406,1.1451,1.1493,1.1519,1.1561,1.1602,1.1617,1.1616,1.1615,1.1613,1.1616,1.164,1.1641,1.1634,1.1634,1.1634,0,0,1.1017,1.1065,1.1087,1.1158,1.1196,1.1235,1.1257,1.1297,1.1326,1.1368,1.1415,1.1448,1.1501,1.1545,1.1566,1.1572,1.1621,1.1614,1.1613,1.1616,1.1641,1.1641,1.1642,1.1635,1.1635,1.1635,0,0,1.102,1.106,1.1093,1.1131,1.1188,1.1224,1.1232,1.1296,1.132,1.1367,1.14,1.1435,1.1506,1.1543,1.1571,1.1587,1.161,1.1599,1.1592,1.1615,1.1615,1.1616,1.1622,1.1623,1.1601,1.1601,1.1601,0,1.1001,1.1061,1.1107,1.1145,1.1175,1.1216,1.125,1.1284,1.1351,1.1371,1.1377,1.1467,1.1506,1.1559,1.1563,1.1584,1.1594,1.1592,1.1611,1.1613,1.1614,1.162,1.1622,1.16,1.16,1.16,1.16,0,1.1035,1.1076,1.1095,1.1161,1.1193,1.1229,1.1279,1.1306,1.1332,1.1367,1.1415,1.1463,1.1515,1.153,1.1555,1.1586,1.1588,1.1602,1.1612,1.1612,1.1619,1.1622,1.1597,1.1598,1.1598,1.1599,0,0,1.1012,1.1102,1.1109,1.1139,1.1205,1.1238,1.1275,1.1327,1.135,1.1394,1.1427,1.1486,1.15,1.1531,1.1561,1.1581,1.1591,1.1592,1.1594,1.1591,1.1629,1.1618,1.162,1.1606,1.1607,1.1608,1.1625,0,1.1024,1.1093,1.1135,1.1187,1.1226,1.1265,1.1298,1.1341,1.1375,1.1412,1.1449,1.149,1.1505,1.1524,1.1546,1.1585,1.1599,1.1584,1.1636,1.1638,1.1622,1.1624,1.1613,1.1627,1.1627,1.1628,1.1628,0,1.1047,1.1093,1.1149,1.1211,1.1229,1.1257,1.1309,1.1344,1.1394,1.1417,1.1452,1.1482,1.1522,1.1528,1.1584,1.1573,1.1597,1.1619,1.1621,1.1628,1.1633,1.1631,1.1632,1.1634,1.1633,1.1633,1.1632,0,1.1025,1.11,1.1144,1.1168,1.1242,1.1261,1.1292,1.1343,1.1371,1.1416,1.1435,1.1483,1.151,1.1546,1.1588,1.1588,1.164,1.1649,1.166,1.1659,1.1669,1.1668,1.1674,1.1683,1.1683,1.1683,1.1683,0,1.1035,1.1067,1.1135,1.1162,1.12,1.1247,1.1283,1.1317,1.1361,1.1395,1.1431,1.1462,1.1516,1.1552,1.1585,1.1627,1.1638,1.1658,1.1666,1.1655,1.1652,1.1671,1.1671,1.1684,1.1684,1.1684,1.1684,0,1.1017,1.1063,1.1113,1.1179,1.1196,1.1221,1.1277,1.1304,1.134,1.1382,1.1394,1.145,1.1496,1.1541,1.1602,1.1624,1.1665,1.1676,1.1648,1.1653,1.1661,1.166,1.168,1.1685,1.169,1.169,1.169,0,1.102,1.1046,1.1115,1.1141,1.1171,1.1212,1.1242,1.1289,1.1319,1.1378,1.1398,1.1446,1.1487,1.1558,1.1603,1.165,1.1663,1.1667,1.167,1.1658,1.1664,1.1662,1.1665,1.1665,1.1665,1.1665,1.1665,0,1.102,1.1042,1.1084,1.1135,1.1169,1.1211,1.1254,1.1272,1.1328,1.1359,1.1406,1.1438,1.1501,1.1549,1.1601,1.1633,1.1658,1.1663,1.1668,1.1657,1.164,1.165,1.1644,1.1663,1.1663,1.1663,1.1663,1.1663,1.1013,1.1039,1.1091,1.1137,1.1174,1.1214,1.1243,1.1282,1.1323,1.1378,1.1403,1.1451,1.15,1.1573,1.1604,1.1642,1.1648,1.1656,1.1657,1.1659,1.1656,1.1634,1.1651,1.1652,1.1652,1.1652,1.1652,0,1.1016,1.1052,1.1094,1.1153,1.1189,1.121,1.1258,1.1287,1.1329,1.1373,1.1413,1.1467,1.1514,1.1563,1.1612,1.1632,1.1645,1.1644,1.1643,1.165,1.1647,1.1638,1.1633,1.1633,1.1633,1.1633,1.1633,1.1633,1.1022,1.1066,1.1094,1.1157,1.1192,1.124,1.1266,1.1302,1.1338,1.1397,1.1436,1.1468,1.1514,1.1567,1.161,1.1624,1.164,1.1635,1.1652,1.1648,1.165,1.1651,1.1643,1.1638,1.1638,1.1651,1.1651,1.1651]},{"header":{"parameterUnit":"m.s-1","parameterCategory":1,"la1":30.2991,"la2":30.254,"lo1":-89.0895,"lo2":-89.0444,"dy":0.0017,"dx":0.0017,"nx":28,"ny":28,"refTime":"2025-06-09T09:00:00:Z","depth":0,"parameterNumber":3,"parameterNumberName":"V-component_of_WINDS"},"data":[0,0,0,0,0,0,0,0,0,0,0,0,0,0,0,0,0,0,0,0,0,0,0,0,0,0,0,0,0,0,0,0,0,0,0,0,0,0,0,0,0,0,0,0,0,0,0,0,0,0,0,0,0,0,0,0,0,0,3.3596,3.3595,0,3.356,3.3559,3.3559,3.35,3.3499,3.3497,3.3496,3.346,3.346,3.346,0,0,0,0,0,0,0,0,0,0,0,0,0,3.3613,3.3613,3.3596,3.3595,3.3595,3.356,3.3559,3.3559,3.35,3.3498,3.3497,3.3496,3.346,3.346,3.346,0,0,0,0,0,0,0,0,0,0,0,0,0,3.3594,3.3613,3.3596,3.3561,3.3558,3.356,3.3559,3.3559,3.35,3.3498,3.3497,3.3495,3.346,3.346,3.346,3.3493,0,0,3.346,3.346,0,0,0,0,0,0,0,0,3.3595,3.3594,3.3567,3.3564,3.356,3.3532,3.3552,3.3537,3.35,3.3522,3.3496,3.3494,3.3485,3.3483,3.348,3.3491,3.349,3.346,3.346,3.346,3.346,0,0,0,0,0,0,0,3.3597,3.3595,3.3581,3.3566,3.3562,3.3547,3.3543,3.3549,3.3513,3.352,3.3516,3.3512,3.3483,3.348,3.3479,3.3489,3.346,3.346,3.346,3.346,3.3523,3.3525,0,0,0,0,0,0,3.3603,3.3596,3.3583,3.358,3.3574,3.3548,3.3543,3.3543,3.3513,3.3507,3.3514,3.3509,3.3481,3.3479,3.3477,3.3512,3.346,3.346,3.346,3.3521,3.3523,3.3525,0,0,0,0,0,0,3.3604,3.3602,3.3584,3.3587,3.3584,3.355,3.355,3.3543,3.354,3.3508,3.3502,3.3517,3.3479,3.3477,3.3489,3.351,3.346,3.346,3.352,3.3522,3.3524,3.3583,0,0,0,0,0,0,3.3604,3.3603,3.3615,3.3588,3.3584,3.3597,3.3551,3.3543,3.354,3.3534,3.351,3.3504,3.3478,3.3489,3.3489,3.3509,3.346,3.3517,3.3521,3.3524,3.3579,3.3587,3.3594,0,0,0,0,0,3.3605,3.3634,3.3616,3.3615,3.3598,3.3598,3.3596,3.3565,3.3542,3.3554,3.3533,3.3505,3.3508,3.3491,3.349,3.3511,3.3516,3.352,3.3523,3.3576,3.3586,3.3594,0,0,0,0,0,0,3.3665,3.363,3.361,3.363,3.3618,3.3588,3.3602,3.3577,3.3571,3.3566,3.3528,3.3523,3.3539,3.3526,3.3508,3.354,3.3507,3.3511,3.3547,3.3557,3.3564,3.3566,3.346,0,0,0,0,0,3.3681,3.3684,3.3653,3.3674,3.3668,3.3637,3.3635,3.3613,3.3598,3.3592,3.3573,3.3559,3.3557,3.3556,3.3553,3.3577,3.357,3.3591,3.3599,3.3605,3.3608,3.3618,3.3626,3.3537,3.3537,3.3537,0,0,3.3713,3.3694,3.3698,3.3685,3.3673,3.3676,3.3632,3.3638,3.3639,3.3593,3.3602,3.3588,3.357,3.3588,3.3595,3.3578,3.3631,3.361,3.3615,3.3615,3.3623,3.3631,3.3639,3.354,3.3539,3.3539,0,0,3.3773,3.376,3.3775,3.3763,3.3744,3.3723,3.3727,3.3701,3.3689,3.3698,3.3662,3.3664,3.3661,3.365,3.3643,3.3698,3.3671,3.3698,3.3737,3.3747,3.3754,3.376,3.3778,3.3784,3.3702,3.3702,3.3702,0,3.3816,3.3819,3.3786,3.3793,3.3788,3.3746,3.376,3.375,3.3732,3.3729,3.371,3.3705,3.369,3.3704,3.3717,3.3714,3.3716,3.37,3.3756,3.3761,3.3767,3.3783,3.379,3.3705,3.3705,3.3704,3.3704,0,3.3871,3.3874,3.3888,3.387,3.3867,3.3878,3.3846,3.3847,3.3824,3.3805,3.3813,3.3794,3.3785,3.3787,3.3766,3.3797,3.3787,3.3763,3.3729,3.3779,3.3793,3.3799,3.371,3.3709,3.3708,3.3707,0,0,3.3967,3.3931,3.3936,3.3927,3.3903,3.3904,3.3913,3.3904,3.3904,3.3892,3.3897,3.3896,3.3873,3.3866,3.3843,3.3852,3.3894,3.3826,3.3825,3.3838,3.3925,3.3942,3.3949,3.3876,3.3877,3.3878,3.3925,0,3.4021,3.4033,3.4004,3.4023,3.4024,3.3984,3.3991,3.3977,3.3959,3.3957,3.3937,3.3935,3.3906,3.3901,3.3909,3.3887,3.391,3.3884,3.3879,3.388,3.3883,3.3957,3.3976,3.4021,3.3931,3.3932,3.3933,0,3.4085,3.4076,3.4095,3.4069,3.4068,3.4075,3.4063,3.4062,3.4045,3.4031,3.4023,3.3995,3.4001,3.397,3.3976,3.3959,3.3955,3.3945,3.3945,3.3942,3.3908,3.3955,3.4035,3.4041,3.3942,3.3941,3.394,0,3.4151,3.4144,3.4154,3.4147,3.4117,3.4122,3.411,3.4091,3.4087,3.4077,3.4073,3.4064,3.4059,3.4052,3.4023,3.4003,3.4032,3.3999,3.4019,3.402,3.4026,3.4025,3.4105,3.4027,3.4027,3.4027,3.4027,0,3.4213,3.4226,3.4183,3.4189,3.4202,3.4167,3.4181,3.4165,3.4148,3.4149,3.4115,3.4117,3.4079,3.4076,3.4054,3.4061,3.406,3.4047,3.4041,3.4049,3.4051,3.4045,3.4041,3.4028,3.4028,3.4028,3.4027,0,3.4288,3.426,3.4268,3.4238,3.4231,3.4242,3.4216,3.422,3.4199,3.4202,3.42,3.4168,3.4163,3.4134,3.4123,3.4107,3.4122,3.411,3.4128,3.4123,3.4144,3.4142,3.4222,3.423,3.4149,3.415,3.415,0,3.4328,3.4337,3.4308,3.4307,3.4296,3.4294,3.4289,3.4256,3.4252,3.4232,3.4238,3.423,3.4222,3.4217,3.4192,3.4183,3.4169,3.4198,3.4167,3.4175,3.4167,3.4166,3.4166,3.4204,3.4205,3.4206,3.4206,0,3.4403,3.4388,3.4382,3.4372,3.4367,3.4357,3.4345,3.4345,3.4308,3.4306,3.43,3.4294,3.4282,3.4274,3.426,3.4247,3.422,3.4216,3.422,3.4228,3.4237,3.423,3.4143,3.4214,3.4213,3.4213,3.4212,3.4212,3.446,3.4465,3.4445,3.444,3.4427,3.4416,3.4418,3.4397,3.4392,3.4379,3.436,3.4357,3.4338,3.4316,3.4305,3.4301,3.4286,3.4292,3.4293,3.4295,3.4298,3.4239,3.4299,3.4299,3.4299,3.4298,3.4298,0,3.4531,3.4516,3.4511,3.4495,3.449,3.4466,3.4451,3.4448,3.4446,3.443,3.4423,3.4416,3.4408,3.4382,3.4371,3.4373,3.436,3.4371,3.437,3.4367,3.4314,3.4311,3.4381,3.4381,3.4381,3.4381,3.4381,3.4381,3.4567,3.4574,3.4557,3.4556,3.4541,3.4538,3.4531,3.452,3.4507,3.4501,3.4494,3.4477,3.4457,3.4444,3.4435,3.4428,3.4425,3.4439,3.4428,3.4379,3.4371,3.4363,3.436,3.4439,3.444,3.448,3.4481,3.4481]}]]